This demonstration page uses our WeatherBlox Daily Observations layout. Learn more.

Hourly Observations for June 9, 2020

Temp ( °F °C ) Dew Point ( °F °C ) Humidity (%) Winds ( mph kmh ) Pressure ( in mb ) Visibility ( mi km ) Precip ( " mm )
12:15 am 00:15 Clear 78 25.3 63 17.3 61 61 SSE 21 33 29.44 997 10 16.0934 0 0
12:35 am 00:35 Clear 77 25.1 63 17.1 61 61 SSE 17 28 29.44 997 10 16.0934 0 0
12:55 am 00:55 Clear 76 24.7 63 17.1 63 63 SSE 20 31 29.44 997 10 16.0934 0 0
1:15 am 01:15 Clear 76 24.5 63 17.1 63 63 SSE 17 28 29.44 997 10 16.0934 0 0
1:35 am 01:35 Clear 76 24.2 63 17.1 65 65 SSE 16 26 29.42 996 10 16.0934 0 0
1:55 am 01:55 Clear 75 24 63 17.1 65 65 SSE 18 30 29.43 996 10 16.0934 0 0
2:15 am 02:15 Clear 74 23.6 63 17.1 67 67 SSE 16 26 29.44 997 10 16.0934 0 0
2:35 am 02:35 Clear 74 23.2 63 17.3 70 70 SSE 17 28 29.42 996 10 16.0934 0 0
2:55 am 02:55 Clear 73 23 64 17.5 71 71 SSE 17 28 29.42 996 10 16.0934 0 0
3:15 am 03:15 Clear 73 22.9 63 17.4 71 71 SSE 16 26 29.43 996 10 16.0934 0 0
3:35 am 03:35 Clear 73 22.8 63 17.3 71 71 SSE 15 24 29.43 996 10 16.0934 0 0
3:55 am 03:55 Clear 73 22.7 63 17.4 72 72 SSE 16 26 29.43 997 10 16.0934 0 0
4:15 am 04:15 Clear 73 22.5 64 17.6 74 74 SSE 15 24 29.42 996 10 16.0934 0 0
4:35 am 04:35 Partly Cloudy 73 22.5 64 18 76 76 SSE 15 24 29.43 997 10 16.0934 0 0
4:55 am 04:55 Mostly Cloudy 72 22.3 65 18.2 78 78 SSE 13 20 29.44 997 10 16.0934 0 0
5:15 am 05:15 Mostly Cloudy 72 22.4 65 18.2 77 77 SSE 12 19 29.44 997 10 16.0934 0 0
5:35 am 05:35 Cloudy 72 22.2 65 18.1 78 78 SSW 6 9 29.45 997 10 16.0934 0 0
5:55 am 05:55 Cloudy 72 22.2 65 18.2 78 78 S 10 17 29.45 997 10 16.0934 0 0
6:15 am 06:15 Cloudy 72 22.2 65 18.3 79 79 S 8 13 29.45 997 10 16.0934 0 0
6:35 am 06:35 Cloudy 72 22.2 66 18.7 81 81 SSE 9 15 29.44 997 10 16.0934 0 0
6:55 am 06:55 Cloudy 72 22.2 66 18.7 81 81 S 3 6 29.44 997 10 16.0934 0 0
7:15 am 07:15 Cloudy 68 20 62 16.4 80 80 N 12 19 29.48 998 10 16.0934 0 0
7:35 am 07:35 Cloudy 65 18.6 61 16.2 86 86 N 15 24 29.5 999 10 16.0934 0 0
7:55 am 07:55 Cloudy 64 17.8 60 15.7 88 88 N 16 26 29.51 999 10 16.0934 0 0
8:15 am 08:15 Cloudy 63 17.3 60 15.5 89 89 N 18 30 29.51 999 10 16.0934 0 0
8:35 am 08:35 Cloudy 63 17 59 15 88 88 N 23 37 29.51 999 10 16.0934 0 0
8:55 am 08:55 Cloudy 62 16.6 59 15 90 90 N 20 31 29.53 1000 10 16.0934 0 0
9:15 am 09:15 Cloudy 61 16.3 59 15.1 93 93 N 17 28 29.53 1000 7 11.26538 0 0
9:35 am 09:35 Cloudy with Light Rain 61 16 59 15 94 94 N 21 33 29.54 1000 5 8.0467 0 0
9:55 am 09:55 Cloudy with Rain 60 15.6 58 14.7 94 94 N 23 37 29.54 1000 4 6.43736 0 0
10:15 am 10:15 Cloudy with Light Rain 59 15.1 58 14.3 95 95 N 24 39 29.55 1001 5 8.0467 0 0
10:35 am 10:35 Cloudy 59 15 57 14.1 94 94 N 29 46 29.55 1001 7 11.26538 0 0
10:55 am 10:55 Cloudy 59 15 57 14 94 94 N 23 37 29.53 1000 7 11.26538 0.01 0.254
11:15 am 11:15 Cloudy with Light Drizzle 58 14.6 56 13.5 93 93 N 29 46 29.54 1000 10 16.0934 0 0
11:35 am 11:35 Cloudy 57 14.1 55 13 93 93 N 28 44 29.55 1001 10 16.0934 0 0
11:55 am 11:55 Cloudy 57 14 55 13 94 94 N 31 50 29.56 1001 10 16.0934 0 0
12:15 pm 12:15 Cloudy 57 14.1 55 12.9 93 93 N 24 39 29.57 1001 10 16.0934 0 0
12:35 pm 12:35 Cloudy 57 13.7 55 12.5 93 93 N 30 48 29.59 1002 7 11.26538 0 0
12:55 pm 12:55 Cloudy 57 13.7 54 12.2 91 91 N 29 46 29.58 1002 7 11.26538 0 0
1:15 pm 13:15 Cloudy 57 14 53 11.9 87 87 N 25 41 29.58 1002 10 16.0934 0 0
1:35 pm 13:35 Cloudy 58 14.2 53 11.7 85 85 N 29 46 29.58 1002 10 16.0934 0 0
1:55 pm 13:55 Cloudy 57 14 53 11.5 85 85 N 26 43 29.58 1002 10 16.0934 0 0
2:15 pm 14:15 Cloudy 57 13.8 53 11.4 86 86 N 31 50 29.59 1002 10 16.0934 0 0
2:35 pm 14:35 Cloudy 57 14.1 53 11.4 84 84 N 31 50 29.59 1002 10 16.0934 0 0
2:55 pm 14:55 Cloudy 58 14.5 53 11.8 84 84 N 31 50 29.57 1001 10 16.0934 0 0
3:15 pm 15:15 Cloudy with Light Drizzle 58 14.2 54 12.3 88 88 N 25 41 29.58 1002 10 16.0934 0 0
3:35 pm 15:35 Cloudy 56 13.5 52 11.3 87 87 N 30 48 29.6 1002 10 16.0934 0 0
3:55 pm 15:55 Cloudy with Heavy Rain 57 14 51 10.8 81 81 N 35 56 29.59 1002 7 11.26538 0.01 0.254
4:15 pm 16:15 Cloudy with Light Rain 56 13.5 52 11.1 86 86 N 36 57 29.57 1001 10 16.0934 0 0
4:35 pm 16:35 Cloudy with Light Rain 56 13.1 51 10.5 84 84 N 33 54 29.59 1002 10 16.0934 0 0
4:55 pm 16:55 Cloudy with Light Rain 56 13.1 50 10 82 82 N 33 54 29.56 1001 10 16.0934 0.01 0.254
5:15 pm 17:15 Cloudy with Nearby Thunderstorms 55 12.8 49 9.7 82 82 N 36 57 29.58 1002 10 16.0934 0 0
5:35 pm 17:35 Cloudy 55 12.8 49 9.7 82 82 N 32 52 29.56 1001 10 16.0934 0 0
5:55 pm 17:55 Cloudy with Nearby Thunderstorms 56 13.2 49 9.6 79 79 N 31 50 29.58 1002 10 16.0934 0 0
6:15 pm 18:15 Windy with Storms Likely 55 12.8 50 9.8 82 82 N 36 57 29.58 1002 10 16.0934 0 0
6:35 pm 18:35 Cloudy 55 12.9 49 9.3 79 79 N 31 50 29.58 1002 10 16.0934 0 0
6:55 pm 18:55 Cloudy 55 13 50 10.2 83 83 NNW 33 54 29.6 1002 10 16.0934 0 0
7:15 pm 19:15 Cloudy 55 12.7 51 10.5 87 87 N 24 39 29.65 1004 3 4.82802 0.09 2.286
7:35 pm 19:35 Cloudy 55 12.5 52 11 91 91 N 17 28 29.66 1004 7 11.26538 0.21 5.334
7:55 pm 19:55 Cloudy with Nearby Thunderstorms 55 12.6 51 10.8 89 89 N 26 43 29.64 1004 10 16.0934 0.22 5.588
8:15 pm 20:15 Cloudy 54 12.3 51 10.3 88 88 NNW 31 50 29.65 1004 10 16.0934 0 0
8:35 pm 20:35 Cloudy with Light Drizzle 54 12 49 9.2 83 83 N 29 46 29.7 1006 10 16.0934 0 0
8:55 pm 20:55 Cloudy with Heavy Rain 53 11.7 49 9.4 86 86 N 31 50 29.69 1005 5 8.0467 0.03 0.762
9:15 pm 21:15 Cloudy with Light Rain 53 11.5 50 10.2 92 92 N 36 57 29.7 1006 5 8.0467 0.03 0.762
9:35 pm 21:35 Cloudy with Light Rain 53 11.5 51 10.5 94 94 N 36 57 29.71 1006 10 16.0934 0.04 1.016
9:55 pm 21:55 Cloudy with Light Drizzle 54 12 50 10.1 88 88 N 33 54 29.72 1006 10 16.0934 0.05 1.27
10:15 pm 22:15 Cloudy with Light Drizzle 54 12 50 10.2 89 89 N 33 54 29.72 1006 10 16.0934 0 0
10:35 pm 22:35 Cloudy with Light Rain 54 12.2 51 10.5 89 89 N 30 48 29.73 1007 10 16.0934 0 0
10:55 pm 22:55 Cloudy with Rain 54 12.2 51 10.6 90 90 N 30 48 29.75 1008 7 11.26538 0.02 0.508
11:15 pm 23:15 Cloudy with Rain 55 12.5 51 10.5 88 88 N 29 46 29.76 1008 10 16.0934 0.02 0.508
11:35 pm 23:35 Cloudy with Light Rain 55 12.6 51 10.5 87 87 N 29 46 29.77 1008 10 16.0934 0.03 0.762
11:55 pm 23:55 Mostly Cloudy with Light Drizzle 55 12.7 51 10.5 87 87 N 26 43 29.77 1008 10 16.0934 0.03 0.762

Powered by AerisWeather